"read_dt","SO2 (ppb)","flags","PMT voltage (V)","lamp voltage (V)","lamp intensity (Hz)","internal temp (C)","react chamber temp (C)","sample flow (l/min)","pres (mmHg)","SO2 bkg (ppb)","SO2 coefficient"
2016-09-19 00:00:00,1603E-3,5C000000,-0723,0826,12128,029.9,045.5,0.452,744.2,01.18,0.508
2016-09-19 00:01:00,1636E-3,5C000000,-0723,0826,12218,029.9,045.5,0.451,744.2,01.18,0.508
2016-09-19 00:02:00,1534E-3,5C000000,-0723,0825,12259,029.9,045.5,0.452,744.2,01.18,0.508
2016-09-19 00:03:00,1649E-3,5C000000,-0723,0824,12252,029.9,045.5,0.452,744.2,01.18,0.508
2016-09-19 00:04:00,1654E-3,5C000000,-0723,0825,12249,029.9,045.5,0.452,744.2,01.18,0.508
2016-09-19 00:05:00,1621E-3,5C000000,-0723,0825,12252,029.9,045.5,0.451,744.2,01.18,0.508
2016-09-19 00:06:00,1652E-3,5C000000,-0723,0826,12178,029.9,045.5,0.451,744.2,01.18,0.508
2016-09-19 00:07:00,1769E-3,5C000000,-0723,0825,12186,029.9,045.5,0.452,744.2,01.18,0.508
2016-09-19 00:08:00,1745E-3,5C000000,-0723,0825,12271,029.9,045.5,0.452,744.2,01.18,0.508
2016-09-19 00:09:00,1547E-3,5C000000,-0723,0826,12169,029.9,045.5,0.452,744.3,01.18,0.508
2016-09-19 00:10:00,1667E-3,5C000000,-0723,0826,12217,029.9,045.5,0.451,744.3,01.18,0.508
2016-09-19 00:11:00,1677E-3,5C000000,-0723,0826,12246,029.9,045.5,0.452,744.3,01.18,0.508
2016-09-19 00:12:00,1609E-3,5C000000,-0723,0825,12139,029.9,045.5,0.452,744.3,01.18,0.508
2016-09-19 00:13:00,1661E-3,5C000000,-0723,0826,12203,029.9,045.5,0.452,744.3,01.18,0.508
2016-09-19 00:14:00,1674E-3,5C000000,-0723,0825,12137,029.9,045.5,0.452,744.3,01.18,0.508
2016-09-19 00:15:00,1638E-3,5C000000,-0723,0825,12277,029.9,045.5,0.451,744.3,01.18,0.508
2016-09-19 00:16:00,1732E-3,5C000000,-0723,0825,12293,029.9,045.5,0.452,744.3,01.18,0.508
2016-09-19 00:17:00,1705E-3,5C000000,-0723,0826,12326,029.9,045.5,0.452,744.3,01.18,0.508
2016-09-19 00:18:00,1654E-3,5C000000,-0723,0825,12228,029.9,045.5,0.452,744.3,01.18,0.508
2016-09-19 00:19:00,1758E-3,5C000000,-0723,0826,12248,029.9,045.5,0.451,744.3,01.18,0.508
2016-09-19 00:20:00,1571E-3,5C000000,-0723,0825,12240,029.9,045.5,0.451,744.3,01.18,0.508
2016-09-19 00:21:00,1638E-3,5C000000,-0723,0825,12285,029.9,045.5,0.452,744.3,01.18,0.508
2016-09-19 00:22:00,1630E-3,5C000000,-0723,0825,12365,029.9,045.5,0.452,744.3,01.18,0.508
2016-09-19 00:23:00,1766E-3,5C000000,-0723,0825,12206,029.9,045.5,0.452,744.3,01.18,0.508
2016-09-19 00:24:00,1663E-3,5C000000,-0723,0826,12268,029.9,045.5,0.451,744.3,01.18,0.508
2016-09-19 00:25:00,1574E-3,5C000000,-0723,0825,12102,029.9,045.5,0.451,744.3,01.18,0.508
2016-09-19 00:26:00,1563E-3,5C000000,-0723,0825,12188,029.9,045.5,0.452,744.3,01.18,0.508
2016-09-19 00:27:00,1655E-3,5C000000,-0723,0825,12289,029.9,045.5,0.452,744.3,01.18,0.508
2016-09-19 00:28:00,1780E-3,5C000000,-0723,0826,12271,029.9,045.5,0.452,744.3,01.18,0.508
2016-09-19 00:29:00,1679E-3,5C000000,-0723,0825,12289,029.9,045.5,0.451,744.3,01.18,0.508
2016-09-19 00:30:00,1582E-3,5C000000,-0723,0825,12151,029.9,045.5,0.451,744.3,01.18,0.508
2016-09-19 00:31:00,1608E-3,5C000000,-0723,0825,12154,029.9,045.5,0.452,744.3,01.18,0.508
2016-09-19 00:32:00,1681E-3,5C000000,-0723,0825,12108,029.9,045.5,0.452,744.3,01.18,0.508
2016-09-19 00:33:00,1573E-3,5C000000,-0723,0824,12312,029.9,045.5,0.452,744.3,01.18,0.508
2016-09-19 00:34:00,1691E-3,5C000000,-0723,0825,12299,029.9,045.5,0.452,744.3,01.18,0.508
2016-09-19 00:35:00,1582E-3,5C000000,-0723,0825,12224,029.8,045.5,0.452,744.3,01.18,0.508
2016-09-19 00:36:00,1604E-3,5C000000,-0723,0825,12115,029.8,045.5,0.452,744.3,01.18,0.508
2016-09-19 00:37:00,1742E-3,5C000000,-0723,0825,12403,029.8,045.5,0.452,744.3,01.18,0.508
2016-09-19 00:38:00,1606E-3,5C000000,-0723,0826,12372,029.8,045.5,0.452,744.3,01.18,0.508
2016-09-19 00:39:00,1744E-3,5C000000,-0723,0825,12251,029.7,045.5,0.452,744.3,01.18,0.508
2016-09-19 00:40:00,1660E-3,5C000000,-0723,0826,12325,029.7,045.5,0.452,744.3,01.18,0.508
2016-09-19 00:41:00,1585E-3,5C000000,-0723,0826,12318,029.7,045.5,0.452,744.3,01.18,0.508
2016-09-19 00:42:00,1561E-3,5C000000,-0723,0825,12347,029.6,045.5,0.452,744.3,01.18,0.508
2016-09-19 00:43:00,1621E-3,5C000000,-0723,0825,12292,029.6,045.5,0.452,744.3,01.18,0.508
2016-09-19 00:44:00,1558E-3,5C000000,-0723,0825,12076,029.6,045.5,0.453,744.3,01.18,0.508
2016-09-19 00:45:00,1594E-3,5C000000,-0723,0825,12228,029.6,045.5,0.453,744.3,01.18,0.508
2016-09-19 00:46:00,1643E-3,5C000000,-0723,0825,12254,029.5,045.5,0.453,744.3,01.18,0.508
2016-09-19 00:47:00,1686E-3,5C000000,-0723,0825,12286,029.5,045.5,0.453,744.3,01.18,0.508
2016-09-19 00:48:00,1708E-3,5C000000,-0723,0825,12178,029.5,045.5,0.452,744.3,01.18,0.508
2016-09-19 00:49:00,1666E-3,5C000000,-0723,0826,12308,029.4,045.5,0.452,744.3,01.18,0.508
2016-09-19 00:50:00,1678E-3,5C000000,-0723,0825,12298,029.4,045.5,0.452,744.3,01.18,0.508
2016-09-19 00:51:00,1615E-3,5C000000,-0723,0824,12261,029.4,045.5,0.453,744.3,01.18,0.508
2016-09-19 00:52:00,1721E-3,5C000000,-0723,0825,12300,029.4,045.5,0.453,744.3,01.18,0.508
2016-09-19 00:53:00,1607E-3,5C000000,-0723,0825,12063,029.3,045.5,0.453,744.3,01.18,0.508
2016-09-19 00:54:00,1584E-3,5C000000,-0723,0825,12206,029.3,045.5,0.453,744.3,01.18,0.508
2016-09-19 00:55:00,1556E-3,5C000000,-0723,0826,12442,029.3,045.5,0.452,744.3,01.18,0.508
2016-09-19 00:56:00,1555E-3,5C000000,-0723,0825,12356,029.2,045.5,0.453,744.3,01.18,0.508
2016-09-19 00:57:00,1694E-3,5C000000,-0723,0826,12310,029.2,045.5,0.453,744.3,01.18,0.508
2016-09-19 00:58:00,1622E-3,5C000000,-0723,0825,12134,029.2,045.5,0.453,744.3,01.18,0.508
2016-09-19 00:59:00,1563E-3,5C000000,-0723,0826,12283,029.2,045.5,0.453,744.3,01.18,0.508
2016-09-19 01:00:00,1604E-3,5C000000,-0723,0825,12359,029.2,045.5,0.453,744.3,01.18,0.508
2016-09-19 01:01:00,1452E-3,5C000000,-0723,0825,12391,029.1,045.5,0.453,744.3,01.18,0.508
2016-09-19 01:02:00,1667E-3,5C000000,-0723,0825,12203,029.1,045.5,0.454,744.3,01.18,0.508
2016-09-19 01:03:00,1515E-3,5C000000,-0723,0825,12290,029.1,045.5,0.453,744.3,01.18,0.508
2016-09-19 01:04:00,1665E-3,5C000000,-0723,0825,12187,029.1,045.5,0.453,744.3,01.18,0.508
2016-09-19 01:05:00,1692E-3,5C000000,-0724,0825,12150,029.1,045.5,0.454,744.3,01.18,0.508
2016-09-19 01:06:00,1603E-3,5C000000,-0723,0826,12197,029.1,045.5,0.453,744.4,01.18,0.508
2016-09-19 01:07:00,1601E-3,5C000000,-0723,0825,12299,029.0,045.5,0.453,744.4,01.18,0.508
2016-09-19 01:08:00,1635E-3,5C000000,-0723,0825,12256,029.0,045.5,0.453,744.4,01.18,0.508
2016-09-19 01:09:00,1621E-3,5C000000,-0723,0825,12098,029.0,045.5,0.454,744.4,01.18,0.508
2016-09-19 01:10:00,1652E-3,5C000000,-0724,0825,12292,029.0,045.5,0.453,744.4,01.18,0.508
2016-09-19 01:11:00,1666E-3,5C000000,-0723,0825,12251,029.0,045.5,0.453,744.4,01.18,0.508
2016-09-19 01:12:00,1710E-3,5C000000,-0723,0826,12224,028.9,045.5,0.453,744.3,01.18,0.508
2016-09-19 01:13:00,1654E-3,5C000000,-0723,0826,12368,028.9,045.5,0.454,744.3,01.18,0.508
2016-09-19 01:14:00,1626E-3,5C000000,-0723,0824,12173,028.9,045.5,0.454,744.4,01.18,0.508
2016-09-19 01:15:00,1656E-3,5C000000,-0723,0825,12218,028.9,045.5,0.453,744.4,01.18,0.508
2016-09-19 01:16:00,1483E-3,5C000000,-0723,0825,12307,028.8,045.5,0.453,744.4,01.18,0.508
2016-09-19 01:17:00,1646E-3,5C000000,-0724,0825,12175,028.8,045.5,0.454,744.3,01.18,0.508
2016-09-19 01:18:00,1695E-3,5C000000,-0724,0825,12309,028.8,045.5,0.454,744.4,01.18,0.508
2016-09-19 01:19:00,1516E-3,5C000000,-0724,0825,12250,028.7,045.5,0.454,744.4,01.18,0.508
2016-09-19 01:20:00,1525E-3,5C000000,-0724,0826,12065,028.7,045.5,0.454,744.4,01.18,0.508
2016-09-19 01:21:00,1703E-3,5C000000,-0724,0825,12139,028.7,045.5,0.454,744.4,01.18,0.508
2016-09-19 01:22:00,1628E-3,5C000000,-0723,0825,12314,028.7,045.5,0.454,744.4,01.18,0.508
2016-09-19 01:23:00,1651E-3,5C000000,-0723,0825,12172,028.7,045.5,0.454,744.4,01.18,0.508
2016-09-19 01:24:00,1569E-3,5C000000,-0724,0825,12166,028.7,045.5,0.454,744.4,01.18,0.508
2016-09-19 01:25:00,1570E-3,5C000000,-0724,0825,12261,028.7,045.5,0.454,744.3,01.18,0.508
2016-09-19 01:26:00,1592E-3,5C000000,-0724,0824,12116,028.6,045.5,0.454,744.4,01.18,0.508
2016-09-19 01:27:00,1602E-3,5C000000,-0724,0825,12221,028.6,045.5,0.454,744.4,01.18,0.508
2016-09-19 01:28:00,1638E-3,5C000000,-0724,0825,12290,028.6,045.5,0.454,744.4,01.18,0.508
2016-09-19 01:29:00,1693E-3,5C000000,-0724,0825,12316,028.6,045.5,0.453,744.3,01.18,0.508
2016-09-19 01:30:00,1506E-3,5C000000,-0723,0825,12291,028.6,045.5,0.454,744.4,01.18,0.508
2016-09-19 01:31:00,1620E-3,5C000000,-0723,0825,12193,028.6,045.5,0.454,744.3,01.18,0.508
2016-09-19 01:32:00,1608E-3,5C000000,-0724,0825,12172,028.6,045.5,0.454,744.4,01.18,0.508
2016-09-19 01:33:00,1568E-3,5C000000,-0724,0825,12304,028.6,045.5,0.454,744.3,01.18,0.508
2016-09-19 01:34:00,1584E-3,5C000000,-0724,0826,12316,028.6,045.5,0.454,744.3,01.18,0.508
2016-09-19 01:35:00,1717E-3,5C000000,-0723,0824,12295,028.6,045.5,0.454,744.3,01.18,0.508
2016-09-19 01:36:00,1655E-3,5C000000,-0724,0825,12360,028.6,045.5,0.453,744.3,01.18,0.508
2016-09-19 01:37:00,1646E-3,5C000000,-0724,0825,12278,028.6,045.5,0.454,744.4,01.18,0.508
2016-09-19 01:38:00,1616E-3,5C000000,-0724,0825,12103,028.6,045.5,0.454,744.4,01.18,0.508
2016-09-19 01:39:00,1621E-3,5C000000,-0724,0825,12374,028.6,045.5,0.454,744.4,01.18,0.508
2016-09-19 01:40:00,1613E-3,5C000000,-0724,0826,12191,028.6,045.5,0.454,744.4,01.18,0.508
2016-09-19 01:41:00,1591E-3,5C000000,-0724,0825,12141,028.6,045.5,0.453,744.4,01.18,0.508
2016-09-19 01:42:00,1661E-3,5C000000,-0724,0826,12182,028.7,045.5,0.454,744.4,01.18,0.508
2016-09-19 01:43:00,1569E-3,5C000000,-0724,0825,12159,028.7,045.5,0.453,744.4,01.18,0.508
2016-09-19 01:44:00,1633E-3,5C000000,-0724,0825,12211,028.7,045.5,0.454,744.4,01.18,0.508
2016-09-19 01:45:00,1679E-3,5C000000,-0723,0825,12354,028.7,045.5,0.454,744.4,01.18,0.508
2016-09-19 01:46:00,1534E-3,5C000000,-0724,0825,12074,028.7,045.5,0.453,744.4,01.18,0.508
2016-09-19 01:47:00,1773E-3,5C000000,-0724,0825,12114,028.7,045.5,0.454,744.4,01.18,0.508
2016-09-19 01:48:00,1656E-3,5C000000,-0724,0825,12194,028.7,045.5,0.453,744.4,01.18,0.508
2016-09-19 01:49:00,1578E-3,5C000000,-0724,0825,12267,028.7,045.5,0.454,744.4,01.18,0.508
2016-09-19 01:50:00,1839E-3,5C000000,-0724,0825,12227,028.7,045.5,0.453,744.4,01.18,0.508
2016-09-19 01:51:00,1606E-3,5C000000,-0724,0825,12274,028.7,045.5,0.454,744.3,01.18,0.508
2016-09-19 01:52:00,1543E-3,5C000000,-0724,0825,12171,028.7,045.5,0.454,744.4,01.18,0.508
2016-09-19 01:53:00,1602E-3,5C000000,-0723,0825,12222,028.7,045.5,0.453,744.4,01.18,0.508
2016-09-19 01:54:00,1592E-3,5C000000,-0724,0825,12264,028.7,045.5,0.454,744.4,01.18,0.508
2016-09-19 01:55:00,1687E-3,5C000000,-0724,0825,12073,028.7,045.5,0.453,744.4,01.18,0.508
2016-09-19 01:56:00,1544E-3,5C000000,-0724,0825,12041,028.8,045.5,0.454,744.4,01.18,0.508
2016-09-19 01:57:00,1466E-3,5C000000,-0724,0825,12208,028.8,045.5,0.454,744.4,01.18,0.508
2016-09-19 01:58:00,1638E-3,5C000000,-0723,0825,12220,028.8,045.5,0.453,744.4,01.18,0.508
2016-09-19 01:59:00,1578E-3,5C000000,-0724,0825,12297,028.8,045.5,0.454,744.4,01.18,0.508
2016-09-19 02:00:00,1695E-3,5C000000,-0723,0825,12335,028.8,045.5,0.453,744.4,01.18,0.508
2016-09-19 02:01:00,1534E-3,5C000000,-0723,0825,12363,028.8,045.5,0.454,744.4,01.18,0.508
2016-09-19 02:02:00,1574E-3,5C000000,-0723,0825,12240,028.8,045.5,0.454,744.4,01.18,0.508
2016-09-19 02:03:00,1590E-3,5C000000,-0724,0825,12322,028.8,045.5,0.453,744.4,01.18,0.508
2016-09-19 02:04:00,1621E-3,5C000000,-0723,0826,12277,028.8,045.5,0.454,744.4,01.18,0.508
2016-09-19 02:05:00,1527E-3,5C000000,-0724,0825,12349,028.9,045.5,0.453,744.4,01.18,0.508
2016-09-19 02:06:00,1570E-3,5C000000,-0723,0826,12313,028.9,045.5,0.453,744.4,01.18,0.508
2016-09-19 02:07:00,1640E-3,5C000000,-0724,0825,12094,028.9,045.5,0.454,744.4,01.18,0.508
2016-09-19 02:08:00,1695E-3,5C000000,-0724,0825,12254,028.9,045.5,0.453,744.4,01.18,0.508
2016-09-19 02:09:00,1588E-3,5C000000,-0723,0825,11978,028.9,045.5,0.454,744.4,01.18,0.508
2016-09-19 02:10:00,1501E-3,5C000000,-0723,0826,12225,028.9,045.5,0.453,744.4,01.18,0.508
2016-09-19 02:11:00,1715E-3,5C000000,-0724,0825,12370,028.9,045.5,0.453,744.4,01.18,0.508
2016-09-19 02:12:00,1724E-3,5C000000,-0723,0826,12305,028.9,045.5,0.454,744.4,01.18,0.508
2016-09-19 02:13:00,1587E-3,5C000000,-0723,0826,12302,028.9,045.5,0.453,744.4,01.18,0.508
2016-09-19 02:14:00,1676E-3,5C000000,-0724,0825,12114,029.0,045.5,0.453,744.4,01.18,0.508
2016-09-19 02:15:00,1556E-3,5C000000,-0723,0826,12179,028.9,045.5,0.453,744.4,01.18,0.508
2016-09-19 02:16:00,1674E-3,5C000000,-0723,0825,12259,029.0,045.5,0.453,744.4,01.18,0.508
2016-09-19 02:17:00,1555E-3,5C000000,-0723,0826,12173,029.0,045.5,0.453,744.4,01.18,0.508
2016-09-19 02:18:00,1661E-3,5C000000,-0724,0826,12196,029.0,045.5,0.453,744.4,01.18,0.508
2016-09-19 02:19:00,1622E-3,5C000000,-0724,0825,12171,029.0,045.5,0.453,744.4,01.18,0.508
2016-09-19 02:20:00,1689E-3,5C000000,-0724,0826,12375,029.0,045.5,0.453,744.4,01.18,0.508
2016-09-19 02:21:00,1522E-3,5C000000,-0723,0825,12201,029.0,045.5,0.454,744.4,01.18,0.508
2016-09-19 02:22:00,1669E-3,5C000000,-0723,0826,12235,029.0,045.5,0.453,744.4,01.18,0.508
2016-09-19 02:23:00,1579E-3,5C000000,-0723,0825,12260,029.0,045.5,0.453,744.4,01.18,0.508
2016-09-19 02:24:00,1631E-3,5C000000,-0723,0826,12259,029.0,045.5,0.453,744.4,01.18,0.508
2016-09-19 02:25:00,1587E-3,5C000000,-0723,0826,12147,029.0,045.5,0.453,744.4,01.18,0.508
2016-09-19 02:26:00,1731E-3,5C000000,-0724,0826,12090,029.0,045.5,0.453,744.4,01.18,0.508
2016-09-19 02:27:00,1651E-3,5C000000,-0723,0825,12305,029.1,045.5,0.453,744.4,01.18,0.508
2016-09-19 02:28:00,1588E-3,5C000000,-0723,0825,12322,029.1,045.5,0.453,744.4,01.18,0.508
2016-09-19 02:29:00,1670E-3,5C000000,-0723,0826,12052,029.1,045.5,0.453,744.4,01.18,0.508
2016-09-19 02:30:00,1631E-3,5C000000,-0724,0825,12127,029.1,045.5,0.453,744.4,01.18,0.508
2016-09-19 02:31:00,1607E-3,5C000000,-0723,0826,12264,029.1,045.5,0.453,744.4,01.18,0.508
2016-09-19 02:32:00,1599E-3,5C000000,-0723,0826,12119,029.1,045.5,0.453,744.4,01.18,0.508
2016-09-19 02:33:00,1677E-3,5C000000,-0723,0825,12172,029.1,045.5,0.453,744.4,01.18,0.508
2016-09-19 02:34:00,1677E-3,5C000000,-0723,0825,12321,029.1,045.5,0.453,744.4,01.18,0.508
2016-09-19 02:35:00,1540E-3,5C000000,-0723,0826,12444,029.1,045.5,0.453,744.3,01.18,0.508
2016-09-19 02:36:00,1624E-3,5C000000,-0723,0825,12223,029.1,045.5,0.453,744.3,01.18,0.508
2016-09-19 02:37:00,1662E-3,5C000000,-0723,0825,12167,029.1,045.5,0.453,744.3,01.18,0.508
2016-09-19 02:38:00,1616E-3,5C000000,-0723,0825,12193,029.1,045.5,0.453,744.3,01.18,0.508
2016-09-19 02:39:00,1637E-3,5C000000,-0723,0826,12300,029.1,045.5,0.453,744.3,01.18,0.508
2016-09-19 02:40:00,1725E-3,5C000000,-0723,0826,12231,029.2,045.5,0.453,744.3,01.18,0.508
2016-09-19 02:41:00,1726E-3,5C000000,-0723,0825,12262,029.1,045.5,0.453,744.3,01.18,0.508
2016-09-19 02:42:00,1714E-3,5C000000,-0723,0826,12228,029.1,045.5,0.453,744.3,01.18,0.508
2016-09-19 02:43:00,1589E-3,5C000000,-0723,0825,12354,029.1,045.5,0.453,744.3,01.18,0.508
2016-09-19 02:44:00,1650E-3,5C000000,-0723,0826,12063,029.2,045.5,0.453,744.3,01.18,0.508
2016-09-19 02:45:00,1640E-3,5C000000,-0723,0825,12197,029.2,045.5,0.452,744.3,01.18,0.508
2016-09-19 02:46:00,1580E-3,5C000000,-0724,0826,12286,029.2,045.5,0.453,744.3,01.18,0.508
2016-09-19 02:47:00,1585E-3,5C000000,-0723,0826,12179,029.2,045.5,0.453,744.3,01.18,0.508
2016-09-19 02:48:00,1721E-3,5C000000,-0723,0825,12088,029.2,045.5,0.452,744.3,01.18,0.508
2016-09-19 02:49:00,1626E-3,5C000000,-0723,0824,12198,029.2,045.5,0.453,744.3,01.18,0.508
2016-09-19 02:50:00,1565E-3,5C000000,-0723,0825,12261,029.2,045.5,0.453,744.3,01.18,0.508
2016-09-19 02:51:00,1603E-3,5C000000,-0723,0825,12357,029.2,045.5,0.452,744.3,01.18,0.508
2016-09-19 02:52:00,1587E-3,5C000000,-0723,0826,12244,029.2,045.5,0.453,744.3,01.18,0.508
2016-09-19 02:53:00,1462E-3,5C000000,-0723,0826,12140,029.2,045.5,0.453,744.3,01.18,0.508
2016-09-19 02:54:00,1618E-3,5C000000,-0723,0826,12190,029.2,045.5,0.452,744.4,01.18,0.508
2016-09-19 02:55:00,1606E-3,5C000000,-0723,0826,12063,029.2,045.5,0.453,744.3,01.18,0.508
2016-09-19 02:56:00,1702E-3,5C000000,-0723,0826,12141,029.2,045.5,0.453,744.3,01.18,0.508
2016-09-19 02:57:00,1594E-3,5C000000,-0723,0825,12083,029.2,045.5,0.452,744.3,01.18,0.508
2016-09-19 02:58:00,1744E-3,5C000000,-0723,0826,12214,029.3,045.5,0.453,744.4,01.18,0.508
2016-09-19 02:59:00,1613E-3,5C000000,-0723,0826,12101,029.2,045.5,0.453,744.3,01.18,0.508
2016-09-19 03:00:00,1671E-3,5C000000,-0723,0826,12353,029.3,045.5,0.452,744.3,01.18,0.508
2016-09-19 03:01:00,1578E-3,5C000000,-0723,0825,12139,029.3,045.5,0.453,744.3,01.18,0.508
2016-09-19 03:02:00,1620E-3,5C000000,-0723,0825,12145,029.3,045.5,0.452,744.3,01.18,0.508
2016-09-19 03:03:00,1653E-3,5C000000,-0723,0826,12135,029.3,045.5,0.452,744.3,01.18,0.508
2016-09-19 03:04:00,1612E-3,5C000000,-0723,0826,12250,029.3,045.5,0.453,744.4,01.18,0.508
2016-09-19 03:05:00,1750E-3,5C000000,-0723,0825,12085,029.3,045.5,0.452,744.3,01.18,0.508
2016-09-19 03:06:00,1760E-3,5C000000,-0723,0826,12226,029.3,045.5,0.453,744.3,01.18,0.508
2016-09-19 03:07:00,1631E-3,5C000000,-0723,0826,12240,029.3,045.5,0.453,744.3,01.18,0.508
2016-09-19 03:08:00,1724E-3,5C000000,-0723,0825,12088,029.3,045.5,0.452,744.4,01.18,0.508
2016-09-19 03:09:00,1613E-3,5C000000,-0723,0826,12281,029.3,045.5,0.452,744.4,01.18,0.508
2016-09-19 03:10:00,1598E-3,5C000000,-0723,0826,12337,029.3,045.5,0.453,744.4,01.18,0.508
2016-09-19 03:11:00,1675E-3,5C000000,-0723,0826,12089,029.3,045.5,0.452,744.4,01.18,0.508
2016-09-19 03:12:00,1718E-3,5C000000,-0723,0826,12308,029.3,045.5,0.453,744.3,01.18,0.508
2016-09-19 03:13:00,1731E-3,5C000000,-0723,0826,12189,029.3,045.5,0.453,744.3,01.18,0.508
2016-09-19 03:14:00,1665E-3,5C000000,-0723,0825,12285,029.3,045.5,0.452,744.3,01.18,0.508
2016-09-19 03:15:00,1647E-3,5C000000,-0723,0825,12287,029.3,045.5,0.453,744.3,01.18,0.508
2016-09-19 03:16:00,1565E-3,5C000000,-0723,0825,12108,029.3,045.5,0.453,744.3,01.18,0.508
2016-09-19 03:17:00,1599E-3,5C000000,-0723,0825,12185,029.3,045.5,0.452,744.3,01.18,0.508
2016-09-19 03:18:00,1646E-3,5C000000,-0723,0825,12274,029.3,045.5,0.453,744.3,01.18,0.508
2016-09-19 03:19:00,1693E-3,5C000000,-0723,0826,12321,029.4,045.5,0.453,744.3,01.18,0.508
2016-09-19 03:20:00,1478E-3,5C000000,-0723,0826,12284,029.4,045.5,0.452,744.3,01.18,0.508
2016-09-19 03:21:00,1653E-3,5C000000,-0723,0826,12199,029.4,045.5,0.452,744.3,01.18,0.508
2016-09-19 03:22:00,1606E-3,5C000000,-0723,0826,12194,029.4,045.5,0.453,744.3,01.18,0.508
2016-09-19 03:23:00,1603E-3,5C000000,-0723,0826,12224,029.4,045.5,0.452,744.3,01.18,0.508
2016-09-19 03:24:00,1634E-3,5C000000,-0723,0825,12113,029.4,045.5,0.453,744.3,01.18,0.508
2016-09-19 03:25:00,1664E-3,5C000000,-0723,0825,12237,029.4,045.5,0.453,744.3,01.18,0.508
2016-09-19 03:26:00,1647E-3,5C000000,-0723,0826,12281,029.4,045.5,0.452,744.3,01.18,0.508
2016-09-19 03:27:00,1567E-3,5C000000,-0723,0826,12275,029.4,045.5,0.453,744.3,01.18,0.508
2016-09-19 03:28:00,1647E-3,5C000000,-0723,0825,12127,029.4,045.5,0.452,744.3,01.18,0.508
2016-09-19 03:29:00,1635E-3,5C000000,-0723,0825,12354,029.4,045.5,0.452,744.3,01.18,0.508
2016-09-19 03:30:00,1638E-3,5C000000,-0723,0825,12279,029.4,045.5,0.453,744.3,01.18,0.508
2016-09-19 03:31:00,1665E-3,5C000000,-0723,0825,12292,029.4,045.5,0.452,744.3,01.18,0.508
2016-09-19 03:32:00,1631E-3,5C000000,-0723,0824,12237,029.4,045.5,0.452,744.3,01.18,0.508
2016-09-19 03:33:00,1695E-3,5C000000,-0723,0825,12312,029.4,045.5,0.453,744.3,01.18,0.508
2016-09-19 03:34:00,1656E-3,5C000000,-0723,0825,12231,029.4,045.5,0.452,744.3,01.18,0.508
2016-09-19 03:35:00,1691E-3,5C000000,-0723,0825,12208,029.4,045.5,0.452,744.3,01.18,0.508
2016-09-19 03:36:00,1641E-3,5C000000,-0723,0826,12244,029.4,045.5,0.453,744.3,01.18,0.508
2016-09-19 03:37:00,1660E-3,5C000000,-0723,0825,12273,029.4,045.5,0.452,744.3,01.18,0.508
2016-09-19 03:38:00,1705E-3,5C000000,-0723,0825,12171,029.4,045.5,0.453,744.3,01.18,0.508
2016-09-19 03:39:00,1611E-3,5C000000,-0723,0824,12222,029.4,045.5,0.452,744.3,01.18,0.508
2016-09-19 03:40:00,1674E-3,5C000000,-0723,0825,12178,029.4,045.5,0.452,744.3,01.18,0.508
2016-09-19 03:41:00,1695E-3,5C000000,-0723,0825,11980,029.4,045.5,0.453,744.3,01.18,0.508
2016-09-19 03:42:00,1721E-3,5C000000,-0723,0826,12214,029.4,045.5,0.452,744.3,01.18,0.508
2016-09-19 03:43:00,1650E-3,5C000000,-0723,0825,12192,029.4,045.5,0.452,744.3,01.18,0.508
2016-09-19 03:44:00,1689E-3,5C000000,-0723,0825,12035,029.4,045.5,0.453,744.3,01.18,0.508
2016-09-19 03:45:00,1519E-3,5C000000,-0723,0825,12219,029.4,045.5,0.452,744.3,01.18,0.508
2016-09-19 03:46:00,1609E-3,5C000000,-0723,0826,12427,029.5,045.5,0.452,744.3,01.18,0.508
2016-09-19 03:47:00,1700E-3,5C000000,-0723,0825,12105,029.5,045.5,0.453,744.3,01.18,0.508
2016-09-19 03:48:00,1643E-3,5C000000,-0723,0825,12152,029.5,045.5,0.452,744.3,01.18,0.508
2016-09-19 03:49:00,1532E-3,5C000000,-0723,0825,12183,029.4,045.5,0.452,744.3,01.18,0.508
2016-09-19 03:50:00,1839E-3,5C000000,-0723,0826,12159,029.5,045.5,0.453,744.3,01.18,0.508
2016-09-19 03:51:00,1749E-3,5C000000,-0723,0825,12155,029.5,045.5,0.452,744.3,01.18,0.508
2016-09-19 03:52:00,1660E-3,5C000000,-0723,0825,12234,029.5,045.5,0.452,744.3,01.18,0.508
2016-09-19 03:53:00,1733E-3,5C000000,-0723,0826,12109,029.5,045.5,0.452,744.3,01.18,0.508
2016-09-19 03:54:00,1709E-3,5C000000,-0723,0825,12195,029.5,045.5,0.452,744.3,01.18,0.508
2016-09-19 03:55:00,1694E-3,5C000000,-0723,0825,12273,029.5,045.5,0.452,744.3,01.18,0.508
2016-09-19 03:56:00,1639E-3,5C000000,-0723,0825,12123,029.5,045.5,0.452,744.3,01.18,0.508
2016-09-19 03:57:00,1743E-3,5C000000,-0723,0825,12291,029.5,045.5,0.452,744.3,01.18,0.508
2016-09-19 03:58:00,1698E-3,5C000000,-0723,0825,12129,029.5,045.5,0.452,744.3,01.18,0.508
2016-09-19 03:59:00,1642E-3,5C000000,-0723,0825,12184,029.5,045.5,0.452,744.3,01.18,0.508
2016-09-19 04:00:00,1495E-3,5C000000,-0723,0825,12060,029.5,045.5,0.452,744.3,01.18,0.508
2016-09-19 04:01:00,1577E-3,5C000000,-0723,0826,12243,029.5,045.5,0.452,744.3,01.18,0.508
2016-09-19 04:02:00,1660E-3,5C000000,-0723,0825,12328,029.5,045.5,0.452,744.3,01.18,0.508
2016-09-19 04:03:00,1656E-3,5C000000,-0723,0826,12055,029.5,045.5,0.452,744.3,01.18,0.508
2016-09-19 04:04:00,1615E-3,5C000000,-0723,0825,12149,029.5,045.5,0.453,744.3,01.18,0.508
2016-09-19 04:05:00,1671E-3,5C000000,-0723,0825,12341,029.5,045.5,0.452,744.3,01.18,0.508
2016-09-19 04:06:00,1545E-3,5C000000,-0723,0825,12250,029.5,045.5,0.452,744.3,01.18,0.508
2016-09-19 04:07:00,1755E-3,5C000000,-0723,0826,12258,029.5,045.5,0.453,744.3,01.18,0.508
2016-09-19 04:08:00,1649E-3,5C000000,-0723,0825,12051,029.5,045.5,0.452,744.3,01.18,0.508
2016-09-19 04:09:00,1609E-3,5C000000,-0723,0825,12339,029.5,045.5,0.452,744.3,01.18,0.508
2016-09-19 04:10:00,1557E-3,5C000000,-0723,0825,12105,029.5,045.5,0.452,744.3,01.18,0.508
2016-09-19 04:11:00,1533E-3,5C000000,-0723,0825,12310,029.5,045.5,0.452,744.3,01.18,0.508
2016-09-19 04:12:00,1699E-3,5C000000,-0723,0826,12230,029.5,045.5,0.452,744.3,01.18,0.508
2016-09-19 04:13:00,1618E-3,5C000000,-0723,0826,12224,029.6,045.5,0.452,744.3,01.18,0.508
2016-09-19 04:14:00,1659E-3,5C000000,-0723,0826,12129,029.5,045.5,0.452,744.3,01.18,0.508
2016-09-19 04:15:00,1602E-3,5C000000,-0723,0825,12259,029.5,045.5,0.452,744.3,01.18,0.508
2016-09-19 04:16:00,1539E-3,5C000000,-0723,0826,12265,029.5,045.5,0.452,744.3,01.18,0.508
2016-09-19 04:17:00,1581E-3,5C000000,-0723,0825,12335,029.5,045.5,0.452,744.3,01.18,0.508
2016-09-19 04:18:00,1505E-3,5C000000,-0723,0826,12378,029.6,045.5,0.452,744.3,01.18,0.508
2016-09-19 04:19:00,1700E-3,5C000000,-0723,0825,12153,029.6,045.5,0.452,744.3,01.18,0.508
2016-09-19 04:20:00,1622E-3,5C000000,-0723,0825,12299,029.5,045.5,0.453,744.3,01.18,0.508